Flag for U.S.A. Weather past 2 weeks in Portsmouth, Virginia, U.S.A.

Now
78 °F

Broken clouds.


Feels Like: 81 °F
Forecast: 74 / 84 °F
Wind: 6 mph from Northeast

Location: Norfolk Naval Air Station

Current Time: Jul 5, 2015 at 9:20:09 AM

Latest Report: Jul 5, 2015 at 8:59 AM


Visibility: 7 mi

Pressure: 30.13 "Hg

Humidity: 82%

Dew point: 72 °F

Location of PortsmouthLocation

Historic Weather in Portsmouth — Graph

°F

Portsmouth temperature yesterday

Maximum temperature yesterday: 86 °F (at 4:59 PM)
Minimum temperature yesterday: 72 °F (at 6:59 AM)
Average temperature yesterday: 78 °F

Past Weeks' High & Low Weather Summary

 TemperatureHumidityPressure
High96 °F (Jun 23, 1:59 PM)100% (Jul 5, 5:59 AM)30.12 "Hg (Jul 5, 5:59 AM)
Low62 °F (Jun 29, 4:59 AM)43% (Jun 30, 12:59 PM)29.70 "Hg (Jun 28, 2:59 AM)
Average79 °F73%29.94 "Hg
* Reported Jun 20 7:59 AM — Jul 5 7:59 AM, Portsmouth, Weather by CustomWeather, © 2015

Note: Actual official high and low records may vary slightly from our data, if they occured in-between our weather recording intervals... More about our weather records

Advertising

Portsmouth weather history for previous 24 hours

 ConditionsComfort  
Time TempWeatherWind HumidityBarometerVisibility
7:59 AM
Sun, Jul 5
76 °FBroken clouds.3 mph88%30.12 "Hg7 mi
6:59 AM74 °FFog.No wind94%30.10 "Hg5 mi
5:59 AM72 °FFog.No wind100%30.08 "Hg6 mi
4:59 AM72 °FFog.No wind97%30.06 "Hg6 mi
3:59 AM72 °FFog.No wind97%30.04 "Hg5 mi
2:59 AM72 °FFog.No wind97%30.04 "Hg6 mi
1:59 AM72 °FLight rain. Fog.No wind93%30.04 "Hg5 mi
12:59 AM72 °FPartly cloudy.No wind97%30.04 "Hg8 mi
11:59 PM
Sat, Jul 4
72 °FPartly cloudy.No wind97%30.03 "Hg10 mi
10:59 PM73 °FPartly cloudy.No wind90%30.03 "Hg10 mi
9:59 PM73 °FPartly cloudy.7 mph84%29.99 "Hg10 mi
8:59 PM80 °FThunderstorms. Broken clouds.10 mph79%29.96 "Hg9 mi
7:59 PM82 °FBroken clouds.7 mph72%29.95 "Hg10 mi
6:59 PM84 °FBroken clouds.9 mph59%29.93 "Hg10 mi
5:59 PM86 °FPartly sunny.8 mph57%29.92 "Hg10 mi
4:59 PM86 °FPartly sunny.13 mph57%29.91 "Hg10 mi
3:59 PM85 °FPartly sunny.10 mph63%29.91 "Hg9 mi
2:59 PM79 °FPartly sunny.10 mph82%29.93 "Hg7 mi
1:59 PM83 °FPartly sunny.14 mph65%29.93 "Hg8 mi
12:59 PM82 °FBroken clouds.13 mph70%29.94 "Hg8 mi
11:59 AM81 °FPartly sunny.13 mph69%29.94 "Hg8 mi
10:59 AM78 °FBroken clouds.14 mph76%29.93 "Hg9 mi
9:59 AM77 °FBroken clouds.8 mph79%29.91 "Hg9 mi
Weather by CustomWeather, © 2015

See weather overviewHow to use our weather pages